QPF
0.00 0.00 0.00 0.00 0.00 0.00 0.00 0.00 0.01 0.05 0.11 0.16 0.17 0.16 0.18 0.20 0.21 0.18 0.15 0.10 0.05 0.03 0.04 0.04 0.04 0.06 0.08 0.15 0.16 0.15 0.11 0.04 0.02 0.02 0.02 0.01 0.00 0.00 0.00 0.00 0.00 0.00 0.00
0.00 0.00 0.00 0.00 0.00 0.00 0.00 0.00 0.00 0.02 0.06 0.11 0.13 0.14 0.17 0.18 0.18 0.21 0.19 0.16 0.12 0.09 0.06 0.05 0.05 0.09 0.13 0.18 0.18 0.16 0.11 0.04 0.01 0.03 0.06 0.03 0.01 0.00 0.00 0.00 0.00 0.00 0.00
0.00 0.00 0.00 0.00 0.00 0.00 0.00 0.00 0.00 0.01 0.02 0.05 0.07 0.08 0.09 0.11 0.10 0.11 0.14 0.17 0.19 0.18 0.15 0.12 0.11 0.13 0.14 0.15 0.16 0.14 0.11 0.05 0.01 0.01 0.03 0.05 0.04 0.01 0.00 0.00 0.00 0.00 0.00
0.00 0.00 0.00 0.00 0.00 0.00 0.00 0.00 0.00 0.00 0.01 0.02 0.04 0.06 0.08 0.10 0.10 0.10 0.11 0.14 0.16 0.19 0.20 0.19 0.20 0.16 0.13 0.13 0.14 0.13 0.10 0.11 0.06 0.01 0.00 0.01 0.02 0.01 0.01 0.00 0.00 0.00 0.00
0.00 0.00 0.00 0.00 0.00 0.00 0.00 0.00 0.00 0.00 0.00 0.01 0.01 0.02 0.02 0.03 0.03 0.03 0.04 0.04 0.05 0.08 0.10 0.15 0.19 0.16 0.11 0.11 0.11 0.11 0.12 0.10 0.10 0.05 0.02 0.01 0.00 0.00 0.01 0.02 0.01 0.00 0.00
0.00 0.00 0.00 0.00 0.00 0.00 0.00 0.00 0.00 0.00 0.00 0.00 0.00 0.00 0.00 0.00 0.00 0.01 0.02 0.02 0.03 0.03 0.04 0.08 0.12 0.14 0.13 0.11 0.10 0.11 0.14 0.13 0.13 0.10 0.05 0.03 0.02 0.01 0.01 0.03 0.03 0.01 0.00
0.00 0.00 0.00 0.00 0.00 0.00 0.00 0.00 0.00 0.00 0.00 0.00 0.00 0.00 0.00 0.00 0.00 0.01 0.02 0.02 0.01 0.02 0.04 0.07 0.10 0.13 0.16 0.15 0.13 0.12 0.13 0.12 0.11 0.11 0.08 0.06 0.06 0.02 0.01 0.01 0.02 0.02 0.00
0.00 0.00 0.00 0.00 0.00 0.00 0.00 0.00 0.00 0.00 0.00 0.00 0.00 0.00 0.00 0.00 0.01 0.01 0.02 0.02 0.02 0.03 0.05 0.08 0.12 0.15 0.18 0.21 0.20 0.16 0.13 0.10 0.09 0.10 0.08 0.07 0.07 0.03 0.01 0.02 0.04 0.04 0.02
0.00 0.00 0.00 0.00 0.00 0.00 0.00 0.00 0.00 0.00 0.00 0.00 0.00 0.00 0.00 0.00 0.01 0.01 0.01 0.02 0.02 0.03 0.04 0.07 0.12 0.17 0.21 0.22 0.23 0.20 0.15 0.11 0.08 0.08 0.06 0.04 0.04 0.04 0.02 0.01 0.02 0.06 0.07
0.00 0.00 0.00 0.00 0.00 0.00 0.00 0.00 0.00 0.00 0.00 0.00 0.00 0.00 0.00 0.00 0.00 0.01 0.01 0.01 0.02 0.02 0.04 0.06 0.08 0.12 0.19 0.27 0.28 0.24 0.19 0.15 0.10 0.06 0.05 0.04 0.03 0.04 0.03 0.02 0.02 0.03 0.07
0.00 0.00 0.00 0.00 0.00 0.00 0.00 0.00 0.00 0.00 0.00 0.00 0.00 0.00 0.00 0.00 0.00 0.00 0.00 0.01 0.01 0.02 0.03 0.05 0.08 0.10 0.10 0.14 0.21 0.24 0.21 0.17 0.13 0.08 0.05 0.06 0.04 0.05 0.05 0.04 0.03 0.03 0.04
0.00 0.00 0.00 0.00 0.00 0.00 0.00 0.00 0.00 0.00 0.00 0.00 0.00 0.00 0.00 0.00 0.00 0.00 0.00 0.00 0.01 0.01 0.02 0.04 0.05 0.07 0.08 0.09 0.12 0.16 0.18 0.18 0.16 0.12 0.08 0.07 0.05 0.05 0.05 0.04 0.03 0.03 0.02
0.01 0.01 0.00 0.00 0.00 0.00 0.00 0.00 0.00 0.00 0.00 0.00 0.00 0.00 0.00 0.00 0.00 0.00 0.00 0.00 0.00 0.01 0.01 0.03 0.04 0.05 0.06 0.09 0.11 0.12 0.14 0.13 0.12 0.10 0.08 0.07 0.06 0.04 0.04 0.03 0.03 0.03 0.02
0.02 0.01 0.01 0.00 0.00 0.00 0.00 0.00 0.00 0.00 0.00 0.00 0.00 0.00 0.00 0.00 0.00 0.00 0.00 0.00 0.00 0.00 0.01 0.02 0.03 0.04 0.05 0.06 0.06 0.06 0.09 0.10 0.09 0.06 0.04 0.04 0.04 0.04 0.04 0.03 0.03 0.04 0.03
0.01 0.01 0.01 0.00 0.00 0.00 0.00 0.00 0.00 0.00 0.00 0.00 0.00 0.00 0.00 0.00 0.00 0.00 0.00 0.00 0.00 0.01 0.01 0.03 0.04 0.03 0.03 0.03 0.04 0.05 0.06 0.08 0.07 0.05 0.04 0.03 0.03 0.03 0.03 0.03 0.04 0.04 0.04
0.01 0.01 0.01 0.00 0.00 0.00 0.00 0.00 0.00 0.00 0.00 0.00 0.00 0.00 0.01 0.01 0.01 0.00 0.00 0.00 0.00 0.01 0.01 0.01 0.01 0.02 0.01 0.02 0.02 0.04 0.04 0.05 0.05 0.04 0.04 0.03 0.02 0.02 0.02 0.02 0.03 0.04 0.04
0.00 0.00 0.00 0.00 0.00 0.00 0.00 0.00 0.00 0.00 0.01 0.01 0.01 0.01 0.01 0.01 0.01 0.01 0.00 0.00 0.01 0.01 0.01 0.01 0.00 0.01 0.01 0.00 0.01 0.01 0.02 0.03 0.04 0.03 0.03 0.03 0.03 0.03 0.05 0.05 0.03 0.02 0.02
0.01 0.00 0.00 0.00 0.00 0.00 0.00 0.00 0.00 0.01 0.01 0.02 0.02 0.02 0.01 0.02 0.02 0.02 0.03 0.02 0.02 0.02 0.02 0.01 0.01 0.02 0.02 0.00 0.01 0.01 0.03 0.03 0.03 0.03 0.03 0.04 0.05 0.04 0.08 0.10 0.08 0.04 0.03
0.01 0.00 0.00 0.00 0.00 0.00 0.00 0.00 0.00 0.00 0.00 0.01 0.02 0.02 0.02 0.03 0.04 0.05 0.08 0.08 0.06 0.06 0.05 0.04 0.03 0.04 0.03 0.01 0.00 0.01 0.03 0.03 0.03 0.03 0.03 0.04 0.06 0.08 0.11 0.11 0.09 0.08 0.06
0.00 0.00 0.00 0.00 0.00 0.00 0.00 0.00 0.00 0.00 0.00 0.00 0.01 0.01 0.02 0.02 0.03 0.05 0.08 0.10 0.10 0.10 0.10 0.07 0.05 0.04 0.04 0.02 0.01 0.01 0.02 0.03 0.03 0.03 0.03 0.06 0.08 0.10 0.10 0.08 0.07 0.08 0.08
0.00 0.00 0.00 0.00 0.00 0.00 0.00 0.00 0.00 0.00 0.00 0.00 0.00 0.01 0.01 0.02 0.02 0.03 0.04 0.06 0.09 0.09 0.09 0.07 0.05 0.03 0.03 0.03 0.02 0.01 0.04 0.04 0.03 0.03 0.03 0.04 0.08 0.08 0.08 0.09 0.09 0.10 0.08
0.00 0.00 0.00 0.00 0.00 0.00 0.00 0.00 0.00 0.00 0.00 0.00 0.00 0.00 0.00 0.01 0.02 0.03 0.04 0.06 0.08 0.09 0.09 0.08 0.07 0.06 0.03 0.03 0.02 0.02 0.02 0.03 0.04 0.03 0.02 0.04 0.06 0.06 0.06 0.06 0.07 0.07 0.07
0.00 0.00 0.00 0.00 0.00 0.00 0.00 0.00 0.00 0.00 0.00 0.00 0.00 0.00 0.00 0.00 0.01 0.01 0.02 0.05 0.07 0.08 0.09 0.11 0.10 0.07 0.03 0.02 0.02 0.02 0.02 0.01 0.04 0.02 0.01 0.03 0.07 0.07 0.05 0.04 0.05 0.05 0.06
0.00 0.00 0.00 0.00 0.00 0.00 0.00 0.00 0.00 0.00 0.00 0.00 0.00 0.00 0.00 0.00 0.00 0.01 0.01 0.02 0.04 0.05 0.06 0.09 0.10 0.09 0.06 0.03 0.02 0.03 0.05 0.05 0.04 0.02 0.01 0.01 0.04 0.05 0.04 0.04 0.03 0.04 0.07
0.00 0.00 0.00 0.00 0.00 0.00 0.00 0.00 0.00 0.00 0.00 0.00 0.00 0.00 0.00 0.00 0.00 0.01 0.01 0.01 0.03 0.06 0.07 0.09 0.10 0.08 0.07 0.03 0.02 0.03 0.05 0.08 0.08 0.05 0.02 0.01 0.02 0.02 0.02 0.02 0.03 0.04 0.04
0.00 0.00 0.00 0.00 0.00 0.00 0.00 0.00 0.00 0.00 0.00 0.00 0.00 0.00 0.00 0.00 0.00 0.00 0.00 0.01 0.02 0.04 0.05 0.05 0.05 0.04 0.03 0.02 0.02 0.02 0.02 0.03 0.04 0.05 0.06 0.04 0.03 0.02 0.01 0.01 0.02 0.02 0.02
MSLP
1007.41 1007.55 1007.71 1007.89 1008.08 1008.29 1008.52 1008.80 1009.14 1009.53 1009.97 1010.42 1010.88 1011.29 1011.66 1011.96 1012.22 1012.43 1012.65 1012.88 1013.15 1013.47 1013.84 1014.25 1014.67 1015.09 1015.48 1015.85 1016.18 1016.48 1016.77 1017.06 1017.34 1017.62 1017.87 1018.09 1018.26 1018.35 1018.38 1018.35 1018.29 1018.23 1018.18
1007.37 1007.56 1007.78 1007.99 1008.19 1008.39 1008.60 1008.85 1009.16 1009.52 1009.93 1010.37 1010.80 1011.20 1011.55 1011.83 1012.05 1012.25 1012.43 1012.65 1012.91 1013.24 1013.62 1014.04 1014.47 1014.89 1015.28 1015.63 1015.94 1016.23 1016.50 1016.79 1017.09 1017.40 1017.70 1017.98 1018.21 1018.37 1018.45 1018.46 1018.43 1018.38 1018.34
1007.29 1007.57 1007.85 1008.11 1008.33 1008.53 1008.72 1008.94 1009.20 1009.53 1009.91 1010.31 1010.72 1011.09 1011.41 1011.66 1011.86 1012.02 1012.18 1012.38 1012.63 1012.96 1013.34 1013.76 1014.20 1014.62 1015.00 1015.32 1015.60 1015.86 1016.11 1016.38 1016.69 1017.02 1017.37 1017.70 1017.98 1018.21 1018.34 1018.41 1018.42 1018.40 1018.39
1007.19 1007.53 1007.88 1008.19 1008.45 1008.65 1008.83 1009.02 1009.25 1009.53 1009.87 1010.24 1010.61 1010.96 1011.25 1011.47 1011.64 1011.77 1011.91 1012.09 1012.34 1012.65 1013.04 1013.46 1013.90 1014.31 1014.68 1014.98 1015.24 1015.47 1015.70 1015.95 1016.24 1016.58 1016.95 1017.31 1017.64 1017.92 1018.11 1018.22 1018.28 1018.30 1018.33
1007.06 1007.47 1007.88 1008.24 1008.52 1008.74 1008.91 1009.07 1009.27 1009.51 1009.81 1010.14 1010.48 1010.80 1011.06 1011.26 1011.41 1011.53 1011.65 1011.82 1012.05 1012.37 1012.75 1013.18 1013.62 1014.03 1014.39 1014.69 1014.93 1015.14 1015.34 1015.58 1015.85 1016.18 1016.55 1016.92 1017.27 1017.57 1017.79 1017.94 1018.03 1018.09 1018.15
1006.93 1007.39 1007.85 1008.24 1008.55 1008.78 1008.94 1009.08 1009.25 1009.46 1009.72 1010.02 1010.33 1010.63 1010.87 1011.06 1011.20 1011.31 1011.43 1011.59 1011.82 1012.13 1012.51 1012.94 1013.39 1013.81 1014.18 1014.48 1014.73 1014.93 1015.12 1015.34 1015.59 1015.90 1016.24 1016.59 1016.93 1017.22 1017.45 1017.61 1017.71 1017.79 1017.88
1006.82 1007.30 1007.78 1008.20 1008.52 1008.75 1008.91 1009.04 1009.18 1009.36 1009.60 1009.88 1010.18 1010.46 1010.70 1010.89 1011.03 1011.14 1011.26 1011.42 1011.64 1011.95 1012.33 1012.77 1013.22 1013.65 1014.04 1014.37 1014.63 1014.85 1015.04 1015.25 1015.48 1015.75 1016.05 1016.37 1016.67 1016.93 1017.13 1017.27 1017.37 1017.45 1017.54
1006.74 1007.21 1007.69 1008.10 1008.42 1008.65 1008.80 1008.92 1009.05 1009.23 1009.45 1009.73 1010.02 1010.30 1010.56 1010.76 1010.91 1011.03 1011.15 1011.30 1011.52 1011.81 1012.19 1012.62 1013.08 1013.53 1013.95 1014.31 1014.60 1014.85 1015.06 1015.27 1015.49 1015.73 1015.98 1016.24 1016.48 1016.69 1016.84 1016.95 1017.02 1017.09 1017.18
1006.68 1007.10 1007.54 1007.93 1008.24 1008.45 1008.60 1008.73 1008.86 1009.03 1009.26 1009.54 1009.85 1010.15 1010.42 1010.64 1010.81 1010.94 1011.06 1011.21 1011.41 1011.69 1012.05 1012.47 1012.94 1013.41 1013.85 1014.25 1014.59 1014.87 1015.12 1015.34 1015.55 1015.76 1015.97 1016.17 1016.35 1016.49 1016.59 1016.65 1016.69 1016.74 1016.82
1006.59 1006.94 1007.32 1007.66 1007.94 1008.14 1008.29 1008.42 1008.57 1008.76 1009.02 1009.32 1009.65 1009.98 1010.28 1010.52 1010.70 1010.84 1010.96 1011.10 1011.28 1011.53 1011.87 1012.28 1012.73 1013.22 1013.69 1014.12 1014.51 1014.84 1015.12 1015.37 1015.58 1015.78 1015.95 1016.10 1016.22 1016.31 1016.36 1016.38 1016.39 1016.41 1016.49
1006.44 1006.70 1007.00 1007.28 1007.52 1007.71 1007.86 1008.01 1008.18 1008.41 1008.70 1009.04 1009.40 1009.77 1010.09 1010.36 1010.55 1010.70 1010.81 1010.93 1011.09 1011.32 1011.62 1012.00 1012.45 1012.93 1013.42 1013.89 1014.31 1014.69 1015.02 1015.29 1015.51 1015.70 1015.85 1015.97 1016.05 1016.09 1016.10 1016.09 1016.09 1016.11 1016.18
1006.22 1006.38 1006.59 1006.80 1007.00 1007.17 1007.33 1007.50 1007.72 1007.99 1008.32 1008.70 1009.10 1009.49 1009.84 1010.13 1010.34 1010.49 1010.60 1010.70 1010.83 1011.02 1011.29 1011.65 1012.07 1012.55 1013.05 1013.54 1014.00 1014.41 1014.77 1015.06 1015.30 1015.49 1015.63 1015.72 1015.77 1015.79 1015.78 1015.77 1015.76 1015.79 1015.87
1005.95 1006.00 1006.12 1006.28 1006.43 1006.59 1006.76 1006.97 1007.22 1007.53 1007.90 1008.32 1008.75 1009.17 1009.54 1009.84 1010.06 1010.21 1010.31 1010.40 1010.51 1010.68 1010.92 1011.24 1011.65 1012.11 1012.61 1013.10 1013.58 1014.02 1014.39 1014.70 1014.94 1015.13 1015.26 1015.34 1015.38 1015.38 1015.38 1015.37 1015.38 1015.42 1015.52
1005.69 1005.65 1005.69 1005.79 1005.91 1006.06 1006.24 1006.47 1006.76 1007.10 1007.50 1007.94 1008.39 1008.82 1009.20 1009.50 1009.72 1009.87 1009.97 1010.06 1010.16 1010.31 1010.53 1010.83 1011.22 1011.66 1012.15 1012.64 1013.11 1013.54 1013.92 1014.22 1014.46 1014.63 1014.75 1014.82 1014.85 1014.86 1014.86 1014.87 1014.90 1014.98 1015.11
1005.52 1005.41 1005.39 1005.43 1005.53 1005.68 1005.87 1006.11 1006.42 1006.78 1007.19 1007.64 1008.08 1008.50 1008.87 1009.16 1009.38 1009.53 1009.63 1009.71 1009.82 1009.96 1010.18 1010.47 1010.83 1011.26 1011.72 1012.19 1012.64 1013.05 1013.40 1013.68 1013.90 1014.05 1014.14 1014.19 1014.22 1014.23 1014.24 1014.27 1014.34 1014.44 1014.60
1005.52 1005.36 1005.30 1005.31 1005.39 1005.53 1005.72 1005.97 1006.27 1006.63 1007.03 1007.45 1007.87 1008.25 1008.59 1008.86 1009.06 1009.21 1009.31 1009.41 1009.52 1009.68 1009.89 1010.18 1010.53 1010.93 1011.37 1011.80 1012.21 1012.58 1012.89 1013.13 1013.30 1013.42 1013.48 1013.51 1013.52 1013.53 1013.55 1013.60 1013.69 1013.82 1014.01
1005.75 1005.57 1005.48 1005.47 1005.54 1005.66 1005.85 1006.08 1006.37 1006.70 1007.06 1007.42 1007.78 1008.12 1008.40 1008.64 1008.82 1008.95 1009.06 1009.17 1009.30 1009.47 1009.70 1009.98 1010.32 1010.70 1011.09 1011.48 1011.84 1012.15 1012.40 1012.59 1012.71 1012.79 1012.82 1012.83 1012.82 1012.83 1012.85 1012.92 1013.02 1013.17 1013.38
1006.21 1006.02 1005.93 1005.91 1005.97 1006.08 1006.25 1006.46 1006.70 1006.98 1007.27 1007.57 1007.85 1008.11 1008.33 1008.51 1008.66 1008.78 1008.90 1009.02 1009.16 1009.35 1009.59 1009.87 1010.19 1010.54 1010.88 1011.22 1011.51 1011.76 1011.96 1012.09 1012.17 1012.21 1012.21 1012.20 1012.19 1012.19 1012.22 1012.29 1012.40 1012.57 1012.79
1006.85 1006.67 1006.58 1006.56 1006.61 1006.71 1006.85 1007.02 1007.21 1007.42 1007.63 1007.84 1008.04 1008.21 1008.36 1008.49 1008.60 1008.70 1008.81 1008.94 1009.11 1009.31 1009.55 1009.82 1010.12 1010.42 1010.72 1010.99 1011.23 1011.41 1011.55 1011.64 1011.68 1011.70 1011.69 1011.68 1011.67 1011.68 1011.72 1011.80 1011.92 1012.09 1012.31
1007.55 1007.39 1007.31 1007.31 1007.35 1007.44 1007.55 1007.67 1007.81 1007.95 1008.08 1008.20 1008.30 1008.39 1008.47 1008.54 1008.62 1008.70 1008.81 1008.94 1009.11 1009.31 1009.55 1009.81 1010.07 1010.33 1010.58 1010.79 1010.97 1011.10 1011.19 1011.25 1011.27 1011.28 1011.28 1011.29 1011.30 1011.34 1011.40 1011.49 1011.62 1011.80 1012.01
1008.20 1008.07 1008.01 1008.02 1008.06 1008.14 1008.22 1008.31 1008.40 1008.47 1008.53 1008.57 1008.59 1008.61 1008.63 1008.65 1008.70 1008.76 1008.86 1009.00 1009.17 1009.37 1009.59 1009.82 1010.05 1010.26 1010.45 1010.60 1010.72 1010.81 1010.87 1010.91 1010.94 1010.97 1011.00 1011.04 1011.10 1011.18 1011.27 1011.39 1011.53 1011.71 1011.90
1008.70 1008.60 1008.58 1008.60 1008.65 1008.72 1008.79 1008.85 1008.89 1008.92 1008.92 1008.90 1008.87 1008.83 1008.81 1008.80 1008.82 1008.87 1008.97 1009.10 1009.27 1009.46 1009.66 1009.87 1010.05 1010.22 1010.35 1010.45 1010.52 1010.57 1010.61 1010.65 1010.69 1010.75 1010.83 1010.93 1011.04 1011.17 1011.31 1011.46 1011.62 1011.79 1011.97
1009.01 1008.94 1008.94 1008.98 1009.05 1009.12 1009.19 1009.23 1009.26 1009.25 1009.22 1009.17 1009.10 1009.04 1008.99 1008.96 1008.97 1009.03 1009.12 1009.26 1009.42 1009.61 1009.79 1009.96 1010.10 1010.22 1010.30 1010.35 1010.38 1010.40 1010.42 1010.46 1010.53 1010.62 1010.75 1010.90 1011.07 1011.25 1011.44 1011.62 1011.80 1011.97 1012.14
1009.11 1009.08 1009.10 1009.17 1009.25 1009.34 1009.41 1009.46 1009.48 1009.47 1009.43 1009.36 1009.29 1009.22 1009.16 1009.14 1009.16 1009.22 1009.32 1009.47 1009.63 1009.81 1009.97 1010.12 1010.23 1010.30 1010.34 1010.34 1010.33 1010.32 1010.32 1010.36 1010.44 1010.56 1010.72 1010.92 1011.14 1011.36 1011.58 1011.79 1011.97 1012.14 1012.29
1009.05 1009.05 1009.11 1009.20 1009.30 1009.41 1009.50 1009.57 1009.60 1009.60 1009.57 1009.51 1009.45 1009.38 1009.34 1009.33 1009.37 1009.44 1009.56 1009.72 1009.89 1010.06 1010.22 1010.35 1010.44 1010.47 1010.47 1010.44 1010.39 1010.35 1010.33 1010.35 1010.42 1010.55 1010.73 1010.94 1011.18 1011.43 1011.67 1011.88 1012.07 1012.22 1012.35
1008.90 1008.93 1009.00 1009.12 1009.25 1009.39 1009.50 1009.60 1009.65 1009.68 1009.67 1009.63 1009.59 1009.55 1009.53 1009.53 1009.59 1009.68 1009.82 1009.99 1010.17 1010.36 1010.52 1010.64 1010.71 1010.73 1010.71 1010.64 1010.56 1010.48 1010.43 1010.42 1010.47 1010.58 1010.74 1010.94 1011.17 1011.41 1011.64 1011.84 1012.01 1012.15 1012.25
Thickness
5803 5799 5794 5793 5792 5789 5786 5783 5779 5776 5770 5762 5754 5749 5746 5744 5742 5739 5735 5730 5725 5722 5718 5714 5714 5712 5709 5706 5706 5704 5702 5702 5703 5700 5697 5698 5702 5701 5699 5700 5701 5699 5699
5796 5791 5789 5787 5785 5782 5779 5777 5774 5770 5765 5759 5755 5751 5747 5744 5742 5737 5733 5729 5724 5720 5717 5714 5711 5709 5707 5704 5703 5701 5699 5700 5701 5699 5692 5690 5691 5693 5697 5697 5697 5699 5698
5790 5787 5783 5782 5779 5775 5772 5768 5766 5762 5758 5754 5750 5746 5743 5739 5736 5733 5730 5727 5723 5719 5715 5713 5711 5708 5706 5703 5701 5700 5697 5696 5699 5704 5699 5692 5691 5693 5695 5697 5696 5695 5696
5786 5783 5779 5776 5773 5770 5766 5763 5758 5755 5751 5748 5744 5741 5736 5733 5732 5731 5728 5724 5721 5717 5712 5709 5707 5705 5703 5701 5699 5699 5698 5697 5695 5699 5702 5706 5703 5697 5691 5693 5697 5696 5695
5782 5778 5774 5771 5769 5764 5760 5757 5752 5748 5745 5742 5739 5735 5732 5730 5728 5725 5722 5720 5717 5714 5711 5707 5704 5701 5699 5698 5697 5696 5696 5696 5695 5695 5696 5697 5699 5705 5700 5692 5693 5694 5696
5776 5774 5770 5766 5762 5758 5754 5750 5746 5741 5737 5734 5732 5729 5725 5721 5717 5714 5713 5712 5710 5708 5706 5704 5701 5698 5695 5693 5691 5691 5691 5692 5693 5693 5694 5694 5694 5696 5700 5697 5693 5694 5696
5769 5766 5763 5758 5755 5752 5748 5745 5740 5735 5731 5729 5727 5724 5719 5715 5712 5709 5707 5705 5704 5702 5701 5699 5697 5694 5691 5687 5684 5684 5684 5686 5687 5689 5690 5693 5694 5699 5700 5700 5698 5696 5697
5763 5760 5759 5755 5751 5748 5744 5741 5736 5731 5727 5723 5721 5719 5715 5710 5708 5705 5703 5701 5700 5699 5697 5695 5692 5688 5684 5682 5678 5677 5678 5680 5682 5684 5685 5686 5689 5693 5696 5696 5695 5692 5693
5758 5757 5755 5752 5748 5745 5741 5738 5733 5728 5723 5720 5716 5713 5711 5706 5703 5701 5699 5697 5696 5695 5692 5689 5686 5682 5679 5676 5674 5672 5672 5673 5676 5678 5679 5681 5684 5686 5690 5693 5695 5690 5685
5755 5754 5753 5750 5747 5744 5740 5736 5732 5726 5720 5716 5713 5708 5705 5702 5700 5698 5695 5694 5693 5691 5687 5684 5681 5677 5675 5672 5669 5667 5667 5667 5668 5671 5673 5675 5679 5682 5685 5688 5691 5693 5690
5748 5750 5749 5748 5746 5742 5738 5733 5729 5724 5718 5714 5709 5705 5703 5700 5698 5695 5693 5691 5689 5687 5684 5681 5678 5674 5671 5669 5665 5663 5662 5661 5662 5664 5667 5671 5675 5678 5681 5684 5687 5689 5690
5744 5745 5745 5744 5742 5739 5736 5732 5728 5723 5717 5712 5707 5703 5700 5697 5694 5693 5691 5689 5686 5684 5682 5680 5676 5673 5669 5666 5663 5660 5659 5658 5658 5659 5662 5665 5670 5673 5678 5680 5683 5685 5688
5740 5742 5742 5740 5738 5737 5734 5732 5728 5723 5717 5710 5705 5701 5698 5694 5691 5690 5687 5685 5683 5681 5678 5676 5673 5671 5667 5663 5660 5658 5657 5655 5655 5655 5657 5661 5665 5668 5673 5676 5679 5682 5685
5736 5737 5736 5735 5734 5734 5732 5730 5725 5721 5715 5709 5703 5699 5697 5692 5689 5686 5684 5682 5680 5678 5676 5674 5671 5669 5665 5662 5660 5657 5655 5654 5654 5654 5656 5658 5662 5665 5668 5672 5676 5678 5679
5728 5731 5732 5732 5730 5729 5728 5724 5720 5716 5710 5705 5700 5697 5695 5690 5686 5682 5680 5677 5675 5674 5673 5670 5668 5666 5663 5662 5661 5658 5656 5654 5654 5654 5655 5657 5660 5663 5665 5668 5671 5673 5674
5721 5725 5727 5727 5725 5724 5720 5716 5712 5710 5706 5701 5696 5693 5689 5685 5680 5677 5675 5672 5669 5667 5667 5665 5664 5661 5660 5658 5654 5654 5654 5654 5654 5654 5655 5655 5656 5659 5660 5663 5664 5667 5668
5713 5716 5720 5721 5721 5719 5715 5710 5707 5703 5699 5695 5690 5686 5683 5678 5674 5671 5668 5665 5662 5661 5660 5660 5659 5657 5655 5651 5649 5647 5649 5651 5652 5653 5653 5654 5655 5656 5659 5661 5659 5660 5661
5704 5707 5710 5710 5710 5710 5707 5703 5700 5695 5692 5687 5683 5679 5675 5672 5669 5666 5663 5659 5659 5656 5654 5654 5653 5651 5649 5645 5643 5642 5644 5647 5650 5651 5652 5652 5653 5655 5656 5657 5658 5659 5660
5693 5695 5699 5700 5701 5699 5697 5694 5690 5685 5680 5676 5673 5671 5668 5664 5662 5659 5657 5655 5653 5650 5648 5648 5646 5644 5642 5639 5637 5636 5641 5644 5647 5649 5650 5651 5651 5653 5651 5652 5653 5654 5656
5685 5687 5691 5692 5690 5689 5688 5684 5679 5675 5670 5667 5665 5663 5660 5657 5655 5653 5651 5649 5647 5644 5642 5641 5640 5638 5637 5634 5632 5630 5637 5640 5643 5644 5645 5643 5645 5647 5646 5647 5648 5648 5650
5677 5681 5682 5680 5680 5680 5679 5674 5670 5665 5662 5660 5658 5655 5652 5650 5649 5646 5644 5642 5639 5637 5636 5634 5633 5632 5631 5628 5626 5626 5632 5635 5637 5638 5639 5641 5639 5640 5640 5641 5643 5644 5644
5672 5673 5673 5671 5671 5672 5670 5665 5659 5657 5655 5652 5650 5647 5646 5644 5642 5638 5636 5633 5631 5628 5626 5625 5624 5624 5623 5622 5621 5622 5623 5626 5630 5632 5634 5634 5632 5633 5634 5635 5635 5634 5635
5669 5668 5667 5665 5664 5664 5663 5658 5653 5651 5649 5646 5643 5641 5639 5637 5634 5631 5627 5623 5621 5618 5617 5616 5615 5615 5616 5616 5614 5616 5618 5619 5624 5627 5625 5626 5626 5626 5627 5627 5626 5627 5628
5667 5665 5663 5662 5659 5658 5656 5652 5649 5646 5645 5641 5639 5636 5634 5631 5626 5622 5618 5614 5611 5608 5606 5606 5606 5607 5607 5609 5611 5613 5614 5614 5616 5619 5618 5618 5619 5620 5621 5620 5621 5622 5622
5665 5663 5661 5659 5657 5655 5652 5649 5645 5643 5641 5638 5635 5632 5627 5623 5618 5613 5608 5607 5603 5599 5596 5596 5598 5599 5600 5600 5601 5605 5610 5613 5615 5615 5615 5616 5616 5617 5617 5617 5617 5616 5615
5665 5661 5659 5656 5655 5652 5649 5646 5642 5639 5638 5635 5631 5628 5624 5619 5615 5609 5603 5595 5594 5589 5586 5586 5589 5590 5590 5592 5595 5597 5599 5602 5605 5609 5611 5613 5614 5614 5614 5613 5611 5611 5610